Regional Weather Roundup
Issued by NWS Kansas City/Pleasant Hill, MO

Home | Current Version | Previous Version | Graphics & Text | Print | Product List | Glossary Off
Versions: 1 2 3 4 5 6 7 8 9 10 11 12 13 14 15 16 17 18 19 20 21 22 23 24 25 26 27 28 29 30 31 32 33 34 35 36 37 38 39 40 41 42 43 44 45 46 47 48 49 50

000
ASUS43 KEAX 010510
RWREAX

WEATHER ROUNDUP FOR EASTERN KANSAS AND NORTHWEST MISSOURI
NATIONAL WEATHER SERVICE KANSAS CITY/PLEASANT HILL MO
1200 AM CDT SAT AUG 01 2015

KSZ040-057-103>105-MOZ028-029-037-043-010600-
...KANSAS CITY METROPOLITAN AREA...

CITY           SKY/WX    TMP DP  RH WIND       PRES   REMARKS
K.C. INTL      MOCLDY    74  68  81 S3        30.08R
K.C. DOWNTOWN  PTCLDY    80  71  74 CALM      30.07R
LEES SUMMIT    CLEAR     78  65  63 CALM      30.09R
OLATHE - IXD   PTCLDY    76  66  71 SW6       30.08F
OLATHE - OJC   CLEAR     76  66  71 CALM      30.08R
LAWRENCE       PTCLDY    70  67  90 CALM      30.07F

$$

MOZ001>008-011>017-020>025-030>033-038>040-044>046-053-054-010600-
...NORTHERN AND CENTRAL MISSOURI...

CITY           SKY/WX    TMP DP  RH WIND       PRES   REMARKS
ST. JOSEPH     MOCLDY    74  70  87 SW3       30.07F
MOSBY          MOCLDY    72  72 100 CALM      30.07S
WARRENSBURG    CLEAR     72  68  88 CALM      30.07S
WHITEMAN AFB   CLEAR     74  66  75 SW3       30.06F
CLINTON        CLEAR     72  70  94 CALM      30.08S
SEDALIA        CLEAR     75  66  73 SW6       30.08F
WARSAW         NOT AVBL
CHILLICOTHE      N/A     78  73  84 CALM      30.08R
KIRKSVILLE     MOCLDY    73  70  90 CALM      30.08S

$$

MOZ041-047>049-056>058-063>065-088>090-097-010600-
...EASTERN AND SOUTHERN MISSOURI...

CITY           SKY/WX    TMP DP  RH WIND       PRES   REMARKS
ST. LOUIS INTL PTCLDY    78  65  63 CALM      30.06S
SPIRIT OF STL  CLEAR     72  69  90 CALM      30.04F
COLUMBIA       PTCLDY    77  68  73 CALM      30.07F
JEFFERSON CITY CLEAR     71  68  90 CALM      30.06S
ROLLA          CLEAR     68  64  87 SW5       30.09S
OSAGE BEACH    CLEAR     72  66  83 CALM      30.09S
SPRINGFIELD    CLEAR     71  60  68 CALM      30.11S
BRANSON        PTCLDY    70  64  83 CALM      30.14S
JOPLIN         CLEAR     70  57  63 CALM      30.11S
WEST PLAINS    CLEAR     69  63  81 CALM      30.13R

$$

IAZ060-094-KSZ022-034>040-054-083-096-NEZ052-066-093-010600-
...KANSAS...SOUTHEAST NEBRASKA AND IOWA...

CITY           SKY/WX    TMP DP  RH WIND       PRES   REMARKS
TOPEKA         MOCLDY    76  73  91 CALM      30.07S
MANHATTAN      MOCLDY    75  71  87 CALM      30.07S
EMPORIA        CLEAR     73  68  84 S9        30.08F
CHANUTE        PTCLDY    74  70  87 S5        30.09F
WICHITA        PTCLDY    77  72  84 S7        30.09F
OMAHA          CLEAR     75  70  84 CALM      30.06R
LINCOLN        CLEAR     70  64  81 N5        30.09R
FALLS CITY     CLEAR     73  67  81 E6        30.07S
LAMONI         LGT RAIN  70  66  87 CALM      30.09F
DES MOINES     PTCLDY    76  63  64 S5        30.07R

$$




USA.gov is the U.S. government's official web portal to all federal, state and local government web resources and services.